This is the latest recevied weather packets stored in our database for station/object KI6AOK. If no packets are shown the sender has not sent any weather packets the latest 10 day(s).
| Time | Temp. | Humidity | Pressure | Rain* | Wind** | Luminosity | Snow |
|---|---|---|---|---|---|---|---|
| 1777947405 | 16.11° C | 71% | 1014.8 hPa | 0 mm | - | 11 W/m² | - |
| 1777947102 | 16.11° C | 69% | 1014.7 hPa | 0 mm | - | 16 W/m² | - |
| 1777946797 | 16.67° C | 69% | 1014.8 hPa | 0 mm | - | 18 W/m² | - |
| 1777946494 | 16.67° C | 69% | 1014.8 hPa | 0 mm | - | 21 W/m² | - |
| 1777946191 | 16.67° C | 68% | 1014.5 hPa | 0 mm | - | 24 W/m² | - |
| 1777945887 | 16.67° C | 67% | 1014.7 hPa | 0 mm | - | 32 W/m² | - |
| 1777945584 | 16.67° C | 67% | 1014.5 hPa | 0 mm | - | 43 W/m² | - |
| 1777945281 | 16.67° C | 67% | 1014.9 hPa | 0 mm | - | 57 W/m² | - |
| 1777944979 | 16.67° C | 65% | 1014.7 hPa | 0 mm | - | 46 W/m² | - |
| 1777944676 | 17.22° C | 65% | 1014.8 hPa | 0 mm | - | 49 W/m² | - |
| 1777944374 | 17.78° C | 64% | 1014.7 hPa | 0 mm | - | 63 W/m² | - |
| 1777944071 | 18.33° C | 60% | 1014.7 hPa | 0 mm | - | 77 W/m² | - |
| 1777943766 | 17.78° C | 60% | 1014.8 hPa | 0 mm | - | 101 W/m² | - |
| 1777943464 | 17.78° C | 61% | 1014.9 hPa | 0 mm | - | 119 W/m² | - |
| 1777943165 | 18.33° C | 60% | 1014.8 hPa | 0 mm | - | 107 W/m² | - |
| 1777942861 | 18.33° C | 60% | 1014.9 hPa | 0 mm | - | 136 W/m² | - |
| 1777942558 | 18.33° C | 59% | 1014.9 hPa | 0 mm | - | 137 W/m² | - |
| 1777942255 | 18.89° C | 58% | 1014.8 hPa | 0 mm | - | 82 W/m² | - |
| 1777941952 | 19.44° C | 56% | 1014.7 hPa | 0 mm | - | 167 W/m² | - |
| 1777941649 | 18.89° C | 58% | 1014.8 hPa | 0 mm | - | 228 W/m² | - |
| 1777941346 | 18.89° C | 56% | 1015 hPa | 0 mm | - | 225 W/m² | - |
| 1777941043 | 18.89° C | 56% | 1014.9 hPa | 0 mm | - | 209 W/m² | - |
| 1777940743 | 18.89° C | 56% | 1014.9 hPa | 0 mm | - | 255 W/m² | - |
| 1777940443 | 18.89° C | 57% | 1014.8 hPa | 0 mm | - | 300 W/m² | - |
| 1777940140 | 18.89° C | 56% | 1014.9 hPa | 0 mm | - | 263 W/m² | - |
* Rain latest hour (hover to see other rain measurements)
** Current wind speed in m/s (hover to see current wind gust speed)